SCP
4 4 3 3 2 2 3 2 1 1 1 1 0 0 0 0 0 0 0 0 0 0 0 0 0 0 0 0 0 0 0 0 0 0 0 0 0 0 0 0 0 0 0
3 3 2 2 1 2 1 1 1 1 1 0 0 0 0 0 0 0 0 0 0 0 0 0 0 0 0 0 0 0 -0 0 0 0 0 0 0 0 0 0 0 0 0
2 1 1 1 1 1 1 0 0 0 0 0 0 0 0 0 0 0 0 0 0 0 0 0 0 0 0 0 0 -0 -0 -0 0 0 0 0 0 0 0 0 0 0 0
1 1 1 1 1 1 0 0 0 0 0 0 0 0 0 0 0 0 0 0 0 0 0 0 0 0 0 0 0 -0 -0 -0 0 0 0 0 0 0 0 0 0 0 0
1 1 1 1 0 0 0 0 0 0 0 0 0 0 0 0 0 0 0 0 0 0 0 0 0 0 0 0 -0 -0 -0 -0 0 0 0 0 0 0 0 0 0 0 0
1 1 0 0 0 0 0 0 0 0 0 0 0 0 0 0 0 0 0 0 0 0 0 0 0 0 0 0 0 -0 -0 -0 0 0 0 0 0 0 0 0 0 0 0
0 0 0 0 0 0 0 0 0 0 0 0 0 0 0 0 0 0 0 0 0 0 0 0 0 0 -0 0 0 -0 -0 0 0 0 0 0 0 0 0 0 0 0 0
0 0 0 0 0 0 0 0 0 0 0 0 0 0 0 0 0 0 0 0 0 0 0 0 0 0 0 0 0 0 0 0 0 0 0 0 0 0 0 0 0 0 0
0 0 0 0 0 0 0 0 0 0 0 0 0 0 0 0 0 0 0 0 0 0 0 0 0 0 -0 0 -0 0 0 0 -0 0 0 0 0 0 0 0 0 0 0
0 0 0 0 0 0 0 0 0 0 0 0 0 0 0 0 0 0 0 0 0 0 0 0 0 0 -0 -0 -0 0 0 0 -0 0 0 0 0 0 0 0 0 0 0
0 0 0 0 0 -0 0 0 0 0 0 0 0 0 0 0 0 0 0 0 0 0 0 0 0 0 -0 -0 0 0 0 0 -0 0 0 0 0 0 0 0 0 0 0
0 0 0 0 0 -0 -0 0 0 0 0 0 0 0 0 0 0 0 0 0 0 0 0 0 0 -0 -0 -0 0 -0 -0 -0 0 0 0 0 0 0 0 0 0 0 0
0 0 0 -0 -0 -0 -0 -0 0 0 0 0 0 0 0 0 0 0 0 0 0 0 0 0 -0 -0 -0 -0 -0 -0 0 0 0 0 0 0 0 0 0 0 0 0 0
0 0 -0 -0 -0 -0 -0 -0 -0 0 0 0 0 0 0 0 0 0 0 0 -0 0 0 0 0 -0 -0 -0 0 0 0 0 0 0 0 0 0 0 0 0 0 0 0
0 -0 -0 -0 -0 -0 -0 -0 0 0 0 0 0 0 0 0 0 -0 0 0 0 0 0 0 0 0 0 0 0 0 0 0 0 0 0 0 0 0 0 0 0 0 0
0 0 0 -0 -0 -0 -0 -0 -0 0 0 0 -0 -0 0 -0 -0 -0 -0 -0 -0 -0 0 0 0 0 0 0 0 0 0 0 0 0 0 0 0 0 0 0 0 0 0
0 0 0 -0 -0 -0 -0 -0 -0 0 -0 -0 -0 -0 -0 -0 -0 -0 -0 -0 -0 0 0 0 0 0 0 0 0 0 0 0 0 0 0 0 0 0 0 0 0 0 0
0 -0 -0 -0 -0 -0 -0 -0 -0 -0 -0 0 -0 0 -0 -0 -0 -0 -0 -0 -0 -0 -0 -0 -0 0 -0 -0 0 0 0 0 0 0 0 0 0 0 0 0 -0 0 0
0 -0 -0 -0 -0 -0 -0 -0 -0 -0 -0 -0 0 0 0 -0 -0 0 -0 0 -0 -0 -0 -0 -0 0 0 -0 0 0 0 0 0 0 0 0 0 0 0 0 -0 0 0
0 0 -0 -0 -0 0 -0 0 -0 0 0 -0 -0 -0 0 0 0 -0 -0 -0 -0 0 0 0 0 -0 -0 0 0 0 0 0 0 0 0 0 0 0 -0 0 0 0 0
0 -0 -0 -0 -0 0 -0 -0 -0 -0 0 -0 -0 -0 -0 0 -0 -0 -0 -0 0 0 0 0 0 0 0 0 0 0 0 0 0 0 0 0 -0 0 0 0 0 0 0
0 -0 -0 -0 -0 0 -0 -0 -0 -0 0 0 0 0 0 -0 -0 -0 0 0 0 0 0 0 0 0 0 0 0 0 0 0 0 0 0 0 -0 0 0 0 0 -0 -0
0 0 0 0 0 -0 0 -0 -0 -0 0 0 0 0 -0 -0 -0 0 0 0 0 0 0 0 -0 0 0 0 0 0 0 0 0 0 0 0 0 0 0 0 0 0 0
0 0 0 0 0 0 0 0 0 0 0 0 -0 -0 -0 -0 -0 -0 -0 -0 -0 -0 -0 -0 0 -0 0 0 0 0 0 0 0 0 0 0 0 0 0 0 0 0 0
0 0 0 0 0 0 0 0 0 0 0 -0 -0 -0 -0 -0 -0 -0 -0 -0 -0 -0 -0 -0 -0 -0 -0 -0 -0 -0 -0 0 0 0 0 0 0 0 -0 -0 0 0 0
0 -0 0 0 0 0 0 0 0 0 0 0 0 0 0 0 0 0 0 0 -0 -0 -0 -0 -0 -0 -0 -0 -0 -0 -0 -0 -0 0 0 0 0 0 0 0 0 0 0
Wind_Speed_500mb
57 64 61 56 53 60 60 56 52 48 42 43 44 43 39 37 34 28 23 20 15 16 16 18 21 17 20 21 23 26 15 12 16 15 21 31 34 39 43 34 32 31 34
53 51 45 46 62 62 59 58 59 52 45 41 40 38 31 27 25 22 19 20 16 11 13 15 15 15 15 14 17 25 23 16 17 15 24 36 33 36 34 33 38 35 37
51 44 52 62 62 65 67 63 55 48 44 34 33 33 34 26 24 16 25 16 25 18 15 11 15 15 15 17 16 27 24 21 18 21 32 36 40 40 41 35 39 35 37
48 53 62 67 65 71 65 59 52 45 39 37 34 32 31 26 23 25 23 20 21 20 14 15 11 11 13 20 21 29 24 25 22 30 35 39 41 44 42 45 43 39 41
57 60 61 58 55 56 51 46 42 39 37 31 35 33 28 27 27 25 22 25 25 21 19 14 7 10 17 17 17 22 19 23 29 35 36 43 47 47 48 49 45 48 44
61 56 54 53 54 51 43 38 35 36 34 35 34 31 34 34 30 26 28 26 22 19 19 13 7 8 19 20 20 21 24 28 32 34 32 48 52 50 51 49 46 54 50
57 55 56 53 51 44 42 39 39 37 37 36 32 33 32 27 26 28 27 19 21 21 18 10 5 11 15 23 23 22 26 21 16 19 31 47 50 53 54 51 45 60 63
57 53 52 46 46 45 43 42 39 38 33 34 36 34 31 28 24 25 25 19 24 22 16 12 11 13 18 22 22 29 35 33 27 22 16 35 42 46 42 51 48 57 58
52 49 50 50 46 44 42 45 41 40 39 37 37 31 30 26 25 21 21 22 24 22 22 17 16 14 16 22 24 29 32 31 24 21 19 27 39 42 40 44 52 61 62
57 49 50 51 42 38 36 38 38 38 37 36 34 28 27 30 27 23 21 23 24 21 23 19 20 17 19 21 19 28 30 27 24 26 29 35 33 39 36 35 50 59 70
53 48 51 47 41 39 37 36 30 34 34 35 36 32 27 26 26 25 20 20 22 25 20 17 18 20 24 26 21 21 21 27 27 24 22 30 37 40 40 45 47 46 62
53 54 50 47 42 36 30 30 28 35 42 40 37 33 26 25 25 25 23 25 23 20 20 13 15 18 23 30 29 24 24 22 28 23 30 32 38 42 44 43 47 39 45
57 55 53 43 36 30 27 28 34 37 43 44 40 33 28 25 29 29 33 27 26 24 18 13 13 15 19 29 33 28 23 20 26 26 28 28 39 41 40 36 41 38 39
61 58 42 37 30 28 25 25 30 35 38 40 36 32 27 22 22 28 31 30 29 25 20 16 14 15 20 26 32 25 23 17 23 23 30 36 39 42 39 39 42 39 41
63 53 47 39 35 35 31 27 22 22 24 31 34 29 27 22 12 20 21 21 23 21 23 18 16 18 25 32 37 38 32 22 24 26 30 42 42 43 43 40 34 32 36
66 54 50 43 38 33 31 30 23 18 20 16 25 26 21 17 18 19 17 15 16 14 19 18 17 16 25 33 43 42 37 28 25 31 28 35 47 43 46 44 42 36 31
58 50 50 45 37 38 28 31 35 32 26 23 23 24 17 17 17 18 17 16 17 14 16 16 13 19 26 31 43 42 37 27 23 34 33 35 41 43 45 46 45 40 32
51 45 51 48 44 37 29 25 32 34 35 35 33 24 19 23 19 17 18 19 22 24 17 14 14 19 25 34 49 42 34 29 24 36 39 32 35 38 38 41 45 44 32
54 51 46 49 47 41 33 28 29 33 35 34 32 25 21 23 25 21 18 18 29 25 17 12 13 19 24 36 45 40 32 25 21 34 38 34 36 36 39 40 40 34 32
56 47 47 42 48 50 40 36 31 34 33 32 30 25 27 27 31 34 28 26 22 20 19 12 13 21 21 26 33 36 36 32 27 26 34 36 39 38 37 36 39 33 30
53 51 40 31 42 53 54 38 30 33 31 34 30 27 26 28 42 41 33 29 23 14 18 20 20 25 21 18 20 25 27 28 28 23 30 38 48 38 33 34 33 33 34
49 46 41 29 56 54 52 46 39 38 35 41 37 37 38 43 38 33 26 17 15 13 11 19 18 19 20 20 20 19 19 22 24 23 23 31 35 30 28 31 30 35 33
41 43 35 26 33 43 41 45 42 44 41 42 38 42 45 36 17 12 12 0 14 19 21 7 22 16 16 14 15 15 16 15 14 15 16 19 25 28 29 27 26 30 34
43 41 37 28 17 53 54 50 56 55 43 48 47 53 44 28 20 17 15 13 19 27 22 21 19 24 24 23 21 24 22 25 26 26 27 29 31 26 24 28 31 38 43
50 38 36 28 29 45 56 53 57 67 62 50 53 52 41 28 27 35 29 27 26 30 25 22 16 32 33 31 31 22 23 23 21 30 34 29 36 48 47 47 50 48 44
35 33 34 31 35 42 51 57 76 74 75 70 65 56 47 38 37 43 39 36 37 41 36 32 26 24 26 28 23 17 19 18 16 17 15 18 18 23 27 26 29 30 33
Wind_Direction_500mb
217 214 218 224 221 207 204 203 207 202 188 182 188 192 198 212 224 222 217 195 195 212 212 229 229 243 244 242 227 210 205 188 185 176 182 184 183 187 181 184 190 192 185
207 208 214 204 190 192 193 196 196 189 181 179 188 196 201 212 216 215 207 189 195 224 240 238 241 267 241 227 208 198 200 192 184 180 172 172 179 180 180 172 186 187 186
195 202 188 188 190 188 188 185 178 175 174 179 177 186 198 212 211 220 193 210 198 241 257 250 256 249 246 219 205 191 194 198 195 193 177 174 170 176 167 175 176 177 175
186 182 180 181 183 180 181 173 172 174 175 170 182 196 204 199 195 184 185 206 215 229 259 265 240 244 223 219 208 194 206 215 209 187 184 175 170 170 172 178 174 176 173
173 176 174 175 179 177 175 178 182 180 171 179 191 193 198 187 192 190 195 214 222 232 242 232 249 251 207 199 184 182 203 204 211 186 187 178 178 179 182 183 178 176 166
171 173 172 171 173 173 173 164 162 160 173 177 177 179 179 180 190 187 206 214 224 234 221 214 290 237 202 200 184 189 187 198 196 192 197 180 179 178 182 184 181 168 158
164 170 169 170 170 170 161 159 170 167 174 183 190 190 181 188 202 201 211 222 224 208 210 193 143 125 165 172 176 172 172 183 198 208 209 185 181 181 184 184 190 174 171
165 171 170 173 164 162 160 168 169 173 183 192 184 185 190 192 193 205 220 214 187 197 187 176 161 145 159 167 174 172 175 182 196 210 208 199 185 182 193 186 188 186 175
156 162 162 165 165 164 173 174 172 180 184 185 189 193 194 199 192 191 191 191 188 185 179 189 169 150 161 173 181 175 172 171 168 175 181 179 180 187 192 191 188 181 176
154 158 162 168 168 170 164 166 184 186 191 192 195 201 191 188 186 187 182 181 177 182 187 190 177 173 169 189 194 192 188 182 178 168 160 162 177 189 188 196 193 189 185
156 159 167 166 164 168 166 180 193 193 189 187 186 184 180 185 184 183 181 181 187 188 200 205 197 189 182 187 196 188 198 193 179 183 188 182 182 182 189 196 201 205 194
158 164 167 162 164 171 183 183 186 181 171 171 177 177 177 180 185 185 179 179 177 196 198 186 187 195 201 196 194 184 192 196 182 182 179 180 186 189 191 190 198 202 207
159 157 156 155 161 165 175 180 172 172 178 178 184 187 183 186 191 193 196 190 196 200 201 202 181 185 191 192 188 188 189 198 186 184 182 174 174 180 187 177 180 191 202
153 150 148 148 150 147 141 160 169 173 180 183 186 191 193 177 196 195 195 198 200 211 214 205 192 187 183 189 193 196 191 199 188 186 174 167 167 172 177 174 178 189 199
156 154 154 152 156 150 153 152 143 164 178 184 192 194 186 172 181 187 193 202 212 222 220 208 200 197 191 188 184 187 183 190 186 180 172 171 171 174 181 181 182 179 186
154 153 154 157 161 158 160 159 156 153 155 175 180 188 183 177 184 182 183 190 185 196 195 204 202 197 184 180 184 179 183 180 190 180 173 167 173 171 174 177 183 182 190
155 155 165 163 172 166 166 185 171 158 168 170 166 172 185 189 191 194 198 206 202 195 182 180 190 171 176 181 181 178 172 182 188 188 183 178 170 172 177 175 179 180 181
153 162 172 170 170 161 170 174 185 173 168 161 162 164 167 177 184 182 175 185 165 154 155 160 174 169 171 168 164 165 163 170 185 185 185 189 188 191 194 197 192 188 189
157 170 175 176 177 166 168 147 146 159 159 161 164 162 160 159 150 152 161 160 150 154 151 148 164 172 162 163 175 180 189 190 189 182 179 186 185 193 201 194 190 194 198
168 181 181 176 177 178 184 154 146 142 148 164 166 162 152 158 152 140 136 133 149 159 167 141 152 165 167 173 179 187 189 197 191 190 185 185 191 195 198 202 206 212 220
177 185 178 196 177 179 187 166 160 151 146 148 147 143 138 137 133 128 130 122 117 142 179 163 140 136 140 154 173 179 192 201 202 198 196 195 193 204 208 216 227 225 222
180 183 187 178 179 175 179 180 175 161 139 135 139 140 142 140 136 131 111 115 118 117 105 161 162 151 130 130 138 131 140 167 180 182 182 194 202 214 217 223 231 228 231
176 182 184 165 172 170 172 172 183 167 155 142 139 148 145 156 149 145 134 264 261 211 229 185 187 187 209 187 197 197 191 185 189 202 207 209 214 220 223 233 231 240 252
182 183 190 182 178 181 175 164 174 179 173 163 157 146 152 165 189 214 210 195 179 188 204 201 203 196 214 220 217 217 215 224 235 242 246 250 244 234 239 249 251 254 263
180 179 179 179 167 160 168 171 154 160 165 156 147 156 169 184 197 180 178 176 162 173 180 190 185 193 203 216 215 221 233 244 236 236 237 252 263 254 257 261 266 267 261
154 148 160 167 166 167 152 158 157 157 158 156 156 159 159 156 159 161 166 165 157 152 154 155 152 163 187 208 216 213 217 235 243 243 236 240 251 250 255 255 257 265 265
Wind_Speed_850mb
57 64 61 56 53 60 60 56 52 48 42 43 44 43 39 37 34 28 23 20 15 16 16 18 21 17 20 21 23 26 15 12 16 15 21 31 34 39 43 34 32 31 34
53 51 45 46 62 62 59 58 59 52 45 41 40 38 31 27 25 22 19 20 16 11 13 15 15 15 15 14 17 25 23 16 17 15 24 36 33 36 34 33 38 35 37
51 44 52 62 62 65 67 63 55 48 44 34 33 33 34 26 24 16 25 16 25 18 15 11 15 15 15 17 16 27 24 21 18 21 32 36 40 40 41 35 39 35 37
48 53 62 67 65 71 65 59 52 45 39 37 34 32 31 26 23 25 23 20 21 20 14 15 11 11 13 20 21 29 24 25 22 30 35 39 41 44 42 45 43 39 41
57 60 61 58 55 56 51 46 42 39 37 31 35 33 28 27 27 25 22 25 25 21 19 14 7 10 17 17 17 22 19 23 29 35 36 43 47 47 48 49 45 48 44
61 56 54 53 54 51 43 38 35 36 34 35 34 31 34 34 30 26 28 26 22 19 19 13 7 8 19 20 20 21 24 28 32 34 32 48 52 50 51 49 46 54 50
57 55 56 53 51 44 42 39 39 37 37 36 32 33 32 27 26 28 27 19 21 21 18 10 5 11 15 23 23 22 26 21 16 19 31 47 50 53 54 51 45 60 63
57 53 52 46 46 45 43 42 39 38 33 34 36 34 31 28 24 25 25 19 24 22 16 12 11 13 18 22 22 29 35 33 27 22 16 35 42 46 42 51 48 57 58
52 49 50 50 46 44 42 45 41 40 39 37 37 31 30 26 25 21 21 22 24 22 22 17 16 14 16 22 24 29 32 31 24 21 19 27 39 42 40 44 52 61 62
57 49 50 51 42 38 36 38 38 38 37 36 34 28 27 30 27 23 21 23 24 21 23 19 20 17 19 21 19 28 30 27 24 26 29 35 33 39 36 35 50 59 70
53 48 51 47 41 39 37 36 30 34 34 35 36 32 27 26 26 25 20 20 22 25 20 17 18 20 24 26 21 21 21 27 27 24 22 30 37 40 40 45 47 46 62
53 54 50 47 42 36 30 30 28 35 42 40 37 33 26 25 25 25 23 25 23 20 20 13 15 18 23 30 29 24 24 22 28 23 30 32 38 42 44 43 47 39 45
57 55 53 43 36 30 27 28 34 37 43 44 40 33 28 25 29 29 33 27 26 24 18 13 13 15 19 29 33 28 23 20 26 26 28 28 39 41 40 36 41 38 39
61 58 42 37 30 28 25 25 30 35 38 40 36 32 27 22 22 28 31 30 29 25 20 16 14 15 20 26 32 25 23 17 23 23 30 36 39 42 39 39 42 39 41
63 53 47 39 35 35 31 27 22 22 24 31 34 29 27 22 12 20 21 21 23 21 23 18 16 18 25 32 37 38 32 22 24 26 30 42 42 43 43 40 34 32 36
66 54 50 43 38 33 31 30 23 18 20 16 25 26 21 17 18 19 17 15 16 14 19 18 17 16 25 33 43 42 37 28 25 31 28 35 47 43 46 44 42 36 31
58 50 50 45 37 38 28 31 35 32 26 23 23 24 17 17 17 18 17 16 17 14 16 16 13 19 26 31 43 42 37 27 23 34 33 35 41 43 45 46 45 40 32
51 45 51 48 44 37 29 25 32 34 35 35 33 24 19 23 19 17 18 19 22 24 17 14 14 19 25 34 49 42 34 29 24 36 39 32 35 38 38 41 45 44 32
54 51 46 49 47 41 33 28 29 33 35 34 32 25 21 23 25 21 18 18 29 25 17 12 13 19 24 36 45 40 32 25 21 34 38 34 36 36 39 40 40 34 32
56 47 47 42 48 50 40 36 31 34 33 32 30 25 27 27 31 34 28 26 22 20 19 12 13 21 21 26 33 36 36 32 27 26 34 36 39 38 37 36 39 33 30
53 51 40 31 42 53 54 38 30 33 31 34 30 27 26 28 42 41 33 29 23 14 18 20 20 25 21 18 20 25 27 28 28 23 30 38 48 38 33 34 33 33 34
49 46 41 29 56 54 52 46 39 38 35 41 37 37 38 43 38 33 26 17 15 13 11 19 18 19 20 20 20 19 19 22 24 23 23 31 35 30 28 31 30 35 33
41 43 35 26 33 43 41 45 42 44 41 42 38 42 45 36 17 12 12 0 14 19 21 7 22 16 16 14 15 15 16 15 14 15 16 19 25 28 29 27 26 30 34
43 41 37 28 17 53 54 50 56 55 43 48 47 53 44 28 20 17 15 13 19 27 22 21 19 24 24 23 21 24 22 25 26 26 27 29 31 26 24 28 31 38 43
50 38 36 28 29 45 56 53 57 67 62 50 53 52 41 28 27 35 29 27 26 30 25 22 16 32 33 31 31 22 23 23 21 30 34 29 36 48 47 47 50 48 44
35 33 34 31 35 42 51 57 76 74 75 70 65 56 47 38 37 43 39 36 37 41 36 32 26 24 26 28 23 17 19 18 16 17 15 18 18 23 27 26 29 30 33
Wind_Direction_850mb
217 214 218 224 221 207 204 203 207 202 188 182 188 192 198 212 224 222 217 195 195 212 212 229 229 243 244 242 227 210 205 188 185 176 182 184 183 187 181 184 190 192 185
207 208 214 204 190 192 193 196 196 189 181 179 188 196 201 212 216 215 207 189 195 224 240 238 241 267 241 227 208 198 200 192 184 180 172 172 179 180 180 172 186 187 186
195 202 188 188 190 188 188 185 178 175 174 179 177 186 198 212 211 220 193 210 198 241 257 250 256 249 246 219 205 191 194 198 195 193 177 174 170 176 167 175 176 177 175
186 182 180 181 183 180 181 173 172 174 175 170 182 196 204 199 195 184 185 206 215 229 259 265 240 244 223 219 208 194 206 215 209 187 184 175 170 170 172 178 174 176 173
173 176 174 175 179 177 175 178 182 180 171 179 191 193 198 187 192 190 195 214 222 232 242 232 249 251 207 199 184 182 203 204 211 186 187 178 178 179 182 183 178 176 166
171 173 172 171 173 173 173 164 162 160 173 177 177 179 179 180 190 187 206 214 224 234 221 214 290 237 202 200 184 189 187 198 196 192 197 180 179 178 182 184 181 168 158
164 170 169 170 170 170 161 159 170 167 174 183 190 190 181 188 202 201 211 222 224 208 210 193 143 125 165 172 176 172 172 183 198 208 209 185 181 181 184 184 190 174 171
165 171 170 173 164 162 160 168 169 173 183 192 184 185 190 192 193 205 220 214 187 197 187 176 161 145 159 167 174 172 175 182 196 210 208 199 185 182 193 186 188 186 175
156 162 162 165 165 164 173 174 172 180 184 185 189 193 194 199 192 191 191 191 188 185 179 189 169 150 161 173 181 175 172 171 168 175 181 179 180 187 192 191 188 181 176
154 158 162 168 168 170 164 166 184 186 191 192 195 201 191 188 186 187 182 181 177 182 187 190 177 173 169 189 194 192 188 182 178 168 160 162 177 189 188 196 193 189 185
156 159 167 166 164 168 166 180 193 193 189 187 186 184 180 185 184 183 181 181 187 188 200 205 197 189 182 187 196 188 198 193 179 183 188 182 182 182 189 196 201 205 194
158 164 167 162 164 171 183 183 186 181 171 171 177 177 177 180 185 185 179 179 177 196 198 186 187 195 201 196 194 184 192 196 182 182 179 180 186 189 191 190 198 202 207
159 157 156 155 161 165 175 180 172 172 178 178 184 187 183 186 191 193 196 190 196 200 201 202 181 185 191 192 188 188 189 198 186 184 182 174 174 180 187 177 180 191 202
153 150 148 148 150 147 141 160 169 173 180 183 186 191 193 177 196 195 195 198 200 211 214 205 192 187 183 189 193 196 191 199 188 186 174 167 167 172 177 174 178 189 199
156 154 154 152 156 150 153 152 143 164 178 184 192 194 186 172 181 187 193 202 212 222 220 208 200 197 191 188 184 187 183 190 186 180 172 171 171 174 181 181 182 179 186
154 153 154 157 161 158 160 159 156 153 155 175 180 188 183 177 184 182 183 190 185 196 195 204 202 197 184 180 184 179 183 180 190 180 173 167 173 171 174 177 183 182 190
155 155 165 163 172 166 166 185 171 158 168 170 166 172 185 189 191 194 198 206 202 195 182 180 190 171 176 181 181 178 172 182 188 188 183 178 170 172 177 175 179 180 181
153 162 172 170 170 161 170 174 185 173 168 161 162 164 167 177 184 182 175 185 165 154 155 160 174 169 171 168 164 165 163 170 185 185 185 189 188 191 194 197 192 188 189
157 170 175 176 177 166 168 147 146 159 159 161 164 162 160 159 150 152 161 160 150 154 151 148 164 172 162 163 175 180 189 190 189 182 179 186 185 193 201 194 190 194 198
168 181 181 176 177 178 184 154 146 142 148 164 166 162 152 158 152 140 136 133 149 159 167 141 152 165 167 173 179 187 189 197 191 190 185 185 191 195 198 202 206 212 220
177 185 178 196 177 179 187 166 160 151 146 148 147 143 138 137 133 128 130 122 117 142 179 163 140 136 140 154 173 179 192 201 202 198 196 195 193 204 208 216 227 225 222
180 183 187 178 179 175 179 180 175 161 139 135 139 140 142 140 136 131 111 115 118 117 105 161 162 151 130 130 138 131 140 167 180 182 182 194 202 214 217 223 231 228 231
176 182 184 165 172 170 172 172 183 167 155 142 139 148 145 156 149 145 134 264 261 211 229 185 187 187 209 187 197 197 191 185 189 202 207 209 214 220 223 233 231 240 252
182 183 190 182 178 181 175 164 174 179 173 163 157 146 152 165 189 214 210 195 179 188 204 201 203 196 214 220 217 217 215 224 235 242 246 250 244 234 239 249 251 254 263
180 179 179 179 167 160 168 171 154 160 165 156 147 156 169 184 197 180 178 176 162 173 180 190 185 193 203 216 215 221 233 244 236 236 237 252 263 254 257 261 266 267 261
154 148 160 167 166 167 152 158 157 157 158 156 156 159 159 156 159 161 166 165 157 152 154 155 152 163 187 208 216 213 217 235 243 243 236 240 251 250 255 255 257 265 265